Content
SEND FEEDBACK

Daily
Averages
Monthly
Summary
United States of America

ST. LOUIS, MISSOURI


Home > North America > United States > Missouri
Elevation: 535 feet     Latitude: 38 45N     Longitude: 090 22W

WEATHER
 
SELECT A DAY
Number of Records: 194,367;   Date Range: 1/1/95 - 4/17/14
 
SHARE

PRINT THIS DATA

[ ← Previous Day ]
WEATHER ALMANAC - SEPTEMBER 28, 2013
[ Next Day → ]
[ °C ]   °F
Weather ElementAverageHighLow
Temperature73.5 °F84 °F (1:54 pm)66 °F (1:54 am)
Dewpoint61.8 °F68 °F (10:54 pm)54 °F (2:54 am)
Humidity67.8 %93 % (10:54 pm)47 % (1:54 pm)
Barometer29.97 in30.02 in (8:54 am)29.92 in (3:54 pm)
Wind Speed7 mph16.1 mph (12:54 pm)
Wind Gust23 mph (11:54 am)
Weather ElementAverage
Visibility9.7 mi
Wind DirectionSSE (164 °)

Weather ElementTotal
Precipitation0.01 in
Cooling Degree Days10 (Base 65)
Growing Degree Days25 (Base 50)
Averaged from 25 records on September 28, 2013
WEATHER CONDITIONS BREAKOUT
WIND DIRECTION BREAKOUT
WEATHER BY HOUR - SEPTEMBER 28, 2013
[ °C ]   °F
Local TimeTemperatureDewpointHumidityBarometerVisibilityWind DirectionWind SpeedGust SpeedPrecipitationEventsConditions
1:54 AM66.0 °F55.0 °F68 %30.00 in10.0 miCalmClear
2:54 AM68.0 °F54.0 °F61 %29.98 in10.0 miSE (140°)5.8 mphPartly Cloudy
3:54 AM66.9 °F55.0 °F66 %29.98 in10.0 miSSE (150°)3.5 mphClear
4:54 AM66.9 °F55.9 °F68 %29.98 in10.0 miSouth (170°)5.8 mphClear
5:54 AM66.9 °F57.0 °F70 %29.99 in10.0 miSSE (160°)4.6 mphScattered Clouds
6:54 AM66.9 °F57.9 °F73 %30.01 in10.0 miSouth (170°)6.9 mphMostly Cloudy
7:54 AM68.0 °F59.0 °F73 %30.01 in10.0 miVariable5.8 mphScattered Clouds
8:54 AM71.1 °F60.1 °F68 %30.02 in10.0 miVariable6.9 mphScattered Clouds
9:54 AM75.0 °F61.0 °F62 %30.01 in10.0 miSouth (190°)10.4 mph16.1 mphScattered Clouds
10:54 AM79.0 °F62.1 °F56 %29.99 in10.0 miSouth (190°)15.0 mph21.9 mphScattered Clouds
11:54 AM81.0 °F62.1 °F52 %29.98 in10.0 miSouth (190°)13.8 mph23.0 mphMostly Cloudy
12:54 PM82.9 °F62.1 °F49 %29.96 in10.0 miSSW (200°)16.1 mph21.9 mphMostly Cloudy
1:54 PM84.0 °F62.1 °F47 %29.94 in10.0 miSSW (200°)8.1 mph17.3 mphMostly Cloudy
2:54 PM81.0 °F62.1 °F52 %29.94 in10.0 miSSW (200°)5.8 mphOvercast
3:54 PM81.0 °F63.0 °F54 %29.92 in10.0 miSouth (190°)5.8 mphOvercast
4:54 PM81.0 °F63.0 °F54 %29.92 in10.0 miVariable5.8 mphOvercast
5:54 PM77.0 °F66.0 °F69 %29.93 in10.0 miSSW (210°)3.5 mph0.00 inOvercast
6:54 PM77.0 °F64.0 °F64 %29.94 in10.0 miSSW (200°)6.9 mphOvercast
7:54 PM75.0 °F64.9 °F71 %29.94 in10.0 miSW (220°)5.8 mphPartly Cloudy
8:54 PM73.9 °F64.9 °F73 %29.94 in10.0 miCalmScattered Clouds
9:54 PM71.1 °F66.9 °F87 %29.97 in10.0 miWSW (250°)6.9 mph0.00 inOvercast
10:54 PM70.0 °F68.0 °F93 %29.97 in7.0 miSW (220°)3.5 mph0.01 inOvercast
11:13 PM71.6 °F68.0 °F88 %29.99 in7.0 miSSW (210°)4.6 mphOvercast
11:31 PM69.8 °F66.2 °F88 %30.00 in8.0 miNW (320°)12.7 mph0.00 inRainLight Rain
11:54 PM66.9 °F64.0 °F90 %29.99 in10.0 miNW (320°)11.5 mph0.00 inOvercast
Hourly data recorded from KSUS, located 0.00 miles away from St. Louis, Missouri







STORIES FROM OUR PARTNERS